Location: Cartignies
(50.0929°N, 3.8447°E)
Time: 14:26:33
(UTC+00:00)

Meteor 1-23 Rocket - Pass Details

Date: 12 January 2026
Orbit: 840 x 883 km, 81.3° (Epoch: 16 February)

Event Time Altitude Azimuth Distance (km) Brightness Sun altitude
Rises 17:43:53 0° 177° (S) 3,441 7.5 -15.0°
Reaches altitude 10° 17:46:21 10° 174° (S) 2,501 6.8 -15.3°
Maximum altitude 17:51:54 59° 96° (E) 991 4.2 -16.2°
Drops below altitude 10° 17:57:26 10° 19° (NNE) 2,491 6.3 -17.1°
Enters shadow 17:58:59 - 16° (NNE) 3,078 6.8 -17.3°
